Other Public Products
Issued by NWS Grand Forks, ND

Home | Current Version | Previous Version | Text Only | Print | Product List | Glossary Off
Versions: 1 2 3 4 5 6 7 8 9 10 11 12 13 14 15 16 17 18 19 20 21 22 23 24 25 26 27 28 29 30 31 32 33 34 35 36 37 38 39 40 41 42 43 44 45 46 47 48 49 50

000
FPUS83 KFGF 261110
OPUFGF
PRAIRIE TO PINES WEATHER ROUNDUP
NATIONAL WEATHER SERVICE EASTERN NORTH DAKOTA/GRAND FORKS ND
600 AM CDT SUN APR 26 2015

 **SATELLITE DATA USED TO AUGMENT SKY COVER AT AUTOMATED STATIONS**
 *****  WEATHER ACROSS EASTERN NORTH DAKOTA  *****

CITY           SKY/WX    TMP DP  RH WIND       PRES   REMARKS
GRAND FORKS    PTCLDY    36  28  73 SE8       30.06R
GRAND FORKS AF CLEAR     34  28  77 SE8       30.06R
GRAND CITY NWS   N/A     34 N/A N/A SE6         N/A
BUXTON         NOT AVBL
DEVILS LAKE    CLOUDY    45  37  76 SE9       30.00S
FARGO          PTCLDY    39  26  59 S6        30.07R
WAHPETON ARPT  MOSUNNY   34  25  69 E6        30.08R
$$

 *****  WEATHER ACROSS CENTRAL AND WESTERN NORTH DAKOTA  *****

CITY           SKY/WX    TMP DP  RH WIND       PRES   REMARKS
JAMESTOWN      MOCLDY    44  37  76 SE10      30.00S
BISMARCK       LGT RAIN  46  45  96 E5        29.99R FOG
MINOT          LGT RAIN  46  44  93 SE8       29.95R FOG
MINOT AFB      DRIZZLE   46  46 100 S8        29.95R FOG
GARRISON         N/A     45  44  97 S8        29.96R
WILLISTON      CLOUDY    38  36  92 NW9       29.99R
DICKINSON      CLOUDY    43  40  89 CALM      29.94R
HETTINGER      CLOUDY    43  40  89 N8        29.95S FOG
$$

 *****  OTHER OBSERVATIONS NORTHEAST NORTH DAKOTA  *****

CITY           SKY/WX    TMP DP  RH WIND       PRES   REMARKS
WALHALLA       FAIR      36  34  93 SE3       30.04R
LANGDON        FAIR      32  30  93 SE10      30.02F WCI  24
CAVALIER       PTSUNNY   36  30  80 E3        30.05R
GRAFTON        FAIR      34  28  80 SE8       30.07R
CANDO          CLOUDY    45  41  87 SE5       30.01R
FORT TOTTEN    NOT AVBL
ROLLA          CLOUDY    45  43  93 S8        30.01R
RUGBY          NOT AVBL
 ***** THE ABOVE OBSERVATIONS ARE NON NWS ARE NOT QUALITY
        CONTROLLED AND MAY MIS-REPORT RAIN FOR SNOW...
$$

 *****  OTHER OBSERVATIONS SOUTHEAST NORTH DAKOTA *****

CITY           SKY/WX    TMP DP  RH WIND       PRES   REMARKS
COOPERSTOWN    NOT AVBL
VALLEY CITY    PTSUNNY   41  36  81 SE9       30.04R
OAKES            N/A     43  37  81 E9        30.04R
GWINNER        PTSUNNY   37  36  93 CALM      30.06R
SHEYENNE NWR     N/A     32  27  80 E5        29.95S
BUFFALO        NOT AVBL
WYNDMERE       NOT AVBL
 ***** THE ABOVE OBSERVATIONS ARE NON NWS ARE NOT QUALITY
       CONTROLLED AND MAY MIS-REPORT RAIN FOR SNOW...
$$

  *****  WEATHER ACROSS NORTHERN MINNESOTA  *****

CITY           SKY/WX    TMP DP  RH WIND       PRES   REMARKS
FLAG ISLAND    CLEAR     39  23  52 CALM      30.11R
WARROAD        CLEAR     34  28  80 CALM      30.10R
ROSEAU         CLEAR     32  27  80 E5        30.09R
HALLOCK        PTCLDY    37  27  65 SE8       30.06R
THF RVR FALLS  CLEAR     37  27  65 CALM      30.09R
HALSTAD        NOT AVBL
FOSSTON        CLEAR     32  19  59 CALM      30.09R
BAUDETTE       CLEAR     31  25  78 E3        30.10R
WASKISH        CLEAR     28  25  86 CALM      30.11R
CROOKSTON      CLEAR     36  27  69 SE6       30.09R
$$
  *****  WEATHER ACROSS CENTRAL AND WEST MINNESOTA  *****

CITY           SKY/WX    TMP DP  RH WIND       PRES   REMARKS
BEMIDJI        CLEAR     26  23  88 CALM      30.09R
PARK RAPIDS    CLEAR     29  18  63 CALM      30.08R
WADENA         CLEAR     28  16  59 E5        30.07R WCI  23
DETROIT LAKES  CLEAR     36  18  48 SE7       30.08R
MOORHEAD       PTCLDY    34  25  69 SW5       30.09R
FERGUS FALLS   CLEAR     39   7  26 E5        30.09R
ELBOW LAKE     FAIR      37  22  53 E10       30.06R
MORRIS MN      CLEAR     34  23  64 E9        30.04R
STAPLES        CLEAR     28  18  64 CALM      30.08R
WHEATON        CLEAR     28  27  93 CALM      30.09R
$$
  *****  WEATHER ELSEWHERE ACROSS MINNESOTA  *****

CITY           SKY/WX    TMP DP  RH WIND       PRES   REMARKS
DULUTH         CLEAR     32  13  45 E5        30.09R
INTRNTL FALLS  CLEAR     28  21  75 E3        30.12R
ELY            CLEAR     19  18  93 CALM      30.12R
CLOQUET        CLEAR     25  16  68 CALM      30.09R
BRAINERD       CLEAR     28  19  69 NE3       30.09R
HIBBING        CLEAR     22  16  78 CALM      30.10R
ALEXANDRIA     CLEAR     34  16  47 E5        30.07R
SAINT CLOUD    CLEAR     32  22  66 CALM      30.06R
MINNEAPOLIS    CLEAR     36  22  56 N7        30.05R
$$

  *****  WEATHER ACROSS SOUTH DAKOTA  *****

CITY           SKY/WX    TMP DP  RH WIND       PRES   REMARKS
SIOUX FALLS    PTCLDY    37  35  92 NE3       30.02R
BROOKINGS      PTCLDY    32  30  93 NW3       30.04R
WATERTOWN      PTCLDY    38  33  82 CALM      30.03R
HURON          CLEAR     35  33  92 NE3       30.01R
SISSETON         N/A     33  30  88 SE7       30.05R
ABERDEEN       CLOUDY    47  40  76 E5        30.02R
MITCHELL       CLEAR     37  35  92 NE6       30.01R FOG
PIERRE         CLOUDY    48  42  80 SE13      29.94S
MOBRIDGE       CLOUDY    51  43  74 SE10      29.94R
RAPID CITY     CLOUDY    43  41  93 N16       29.90R
$$

  *****  SOME WEATHER IN NEARBY STATES *****

CITY           SKY/WX    TMP DP  RH WIND       PRES   REMARKS
GLASGOW MT     CLOUDY    38  33  82 NW13      30.00R
GREAT FALLS MT CLOUDY    31  25  78 N14       30.05R WCI  21
CHEYENNE WY    CLOUDY    42  41  96 SE14      29.81S FOG
SCOTTSBLUFF NE LGT RAIN  48  48 100 E9        29.81R
OMAHA NE       CLEAR     41  39  93 N3        29.97R
DES MOINES IA  PTCLDY    42  36  79 NE6       29.98R
DAVENPORT IA   CLEAR     34  26  72 NE8       29.96R
CHICAGO IL     CLEAR     36  29  75 N7        29.94R
EAU CLAIRE WI  CLEAR     30  26  85 NE5       30.04R
LA CROSSE WI   CLEAR     31  24  75 CALM      30.03R
$$

  *****  SOME NATIONAL WEATHER *****

CITY           SKY/WX    TMP DP  RH WIND       PRES   REMARKS
LA GUARDIA NY  MOCLDY    46  30  53 NE9       29.69S
RALEIGH NC     CLOUDY    46  45  93 NE5       29.63R FOG
ATLANTA GA     CLOUDY    64  61  90 W10       29.68R
NEW ORLEANS LA CLOUDY    70  67  90 CALM      29.75R
OKLAHOMA CITY  MOCLDY    58  53  84 NE13      29.71R
ALBUQUERQUE NM LGT RAIN  53  36  52 SE6       29.75F
SALT LAKE CITY RAIN      39  36  89 N26G35    29.82R
LOS ANGELES CA PTCLDY    53  50  89 E3        29.93R
BOISE ID       CLEAR     37  28  70 NW8       29.98R
SEATTLE WA     PTCLDY    42  36  79 SE6       30.12S
$$

*** WEATHER ACROSS MANITOBA...SASKATCHEWAN AND ONTARIO ***
                ***ONTARIO***

CITY           SKY/WX    TMP DP  RH WIND       PRES   REMARKS
GERALDTON      PTCLDY    28  27  93 N5        30.12S WCI  23
THUNDER BAY    CLEAR     23  21  93 W3        30.15R
SIOUX LOOKOUT  CLEAR     23  18  80 E2        30.16R
TORONTO        PTCLDY    37  28  70 N8        29.85R
BIG TROUT LK   FOG       19  19 100 NE3       30.27R VSB 1/2
PICKLE LAKE    PTCLDY    23  19  86 NE3       30.19
DRYDEN         CLEAR     30  23  74 NE6       30.14R WCI  24
KENORA         PTCLDY    36  19  51 E9        30.12R
$$
                *** MANITOBA***

CITY           SKY/WX    TMP DP  RH WIND       PRES   REMARKS
BRANDON        CLOUDY    46  41  81 SE9       29.99R
DAUPHIN        CLOUDY    45  36  70 SE12      29.97R
ISLAND LAKE    PTCLDY    28  19  69 E6        30.21R WCI  22
PILOT MOUND      N/A     39  36  87 SE9         N/A
THE PAS        LGT RAIN  34  32  93 NE9G20    30.05F
THOMPSON       CLOUDY    32  28  86 NE7       30.21R
WINNIPEG       PTCLDY    39  27  60 SE7       30.07S
CHURCHILL      PTCLDY    18  16  93 S6        30.34R WCI   9
GILLAM         MOCLDY    30  23  74 E5        30.27R
$$
                ***SASKATCHEWAN***

CITY           SKY/WX    TMP DP  RH WIND       PRES   REMARKS
ESTEVAN        CLOUDY    37  36  93 W14G21    29.96R
KINDERSLEY     FLURRIES  30  28  93 N16       30.01R WCI  19
LLOYDMINSTER   CLOUDY    30  16  55 N9        30.06R WCI  22
PRINCE ALBERT  LGT SNOW  34  32  93 NE14      29.94S WCI  24
REGINA         CLOUDY    36  34  93 W17G24    29.91R
YORKTON        CLOUDY    46  45  93 SE14G22   29.86S FOG



USA.gov is the U.S. government's official web portal to all federal, state and local government web resources and services.